Location: Unnamed
(42.1164°N, 2.7652°E)
Time: 20:15:37
(UTC+02:00)

ISS - Pass Details

Date: 06 May 2021
Orbit: 417 x 422 km, 51.6° (Epoch: 14 June)

Event Time Altitude Azimuth Distance (km) Brightness Sun altitude
Exits shadow 04:19:15 19° 318° (NW) 1,091 -1.6 -21.5°
Maximum altitude 04:20:18 21° 344° (NNW) 997 -1.5 -21.3°
Drops below altitude 10° 04:22:59 10° 37° (NE) 1,511 0.2 -21.0°
Sets 04:25:26 0° 54° (NE) 2,378 1.5 -20.7°
